User: anonymous   Login
Location: Bittkow
(50.3000°N, 19.0000°E)
Time: 03:34:30
(UTC+00:00)
Language:

CZ-4C R/B - Orbit

View from above orbital plane
View from above orbital plane
View from above satellite
View from above satellite

Ground track
Ground track

The orbit data is extracted from the following two-line orbital elements,

1 32290U 07055B   20329.47462157  .00003079  00000-0  77647-4 0  9999
2 32290  97.6674 132.0735 0058948 325.6364  34.1073 15.38955258724799
Epoch (UTC): 24 November 2020 11:23:27
Eccentricity: 0.0058948
inclination: 97.6674°
perigee height: 409 km
apogee height: 489 km
right ascension of ascending node: 132.0735°
argument of perigee: 325.6364°
revolutions per day: 15.38955258
mean anomaly at epoch: 34.1073°
orbit number at epoch: 72479

The dashed part of the orbit path shows where the satellite is in the earth's shadow,  

DLR